Regional Weather Roundup
Issued by NWS

Home | Current Version | Previous Version | Graphics & Text | Print | Product List | Glossary On
Versions: 1 2 3 4 5 6 7 8 9 10 11 12 13 14 15 16 17 18 19 20 21 22 23 24 25 26 27 28 29 30 31 32 33 34 35 36 37 38 39 40 41 42 43 44 45 46 47 48 49 50
000
ASUS43 KOAX 291902
RWRNE

WEATHER ROUNDUP FOR NEBRASKA
NATIONAL WEATHER SERVICE OMAHA NE
200 PM CDT WED JUL 29 2015

NOTES: SATELLITE DATA IS BEING USED TO AUGMENT CLOUD COVER ABOVE
       12000 FEET.
       "FAIR" INDICATES FEW OR NO CLOUDS BELOW 12,000 FEET WITH NO
       SIGNIFICANT WEATHER AND/OR OBSTRUCTIONS TO VISIBILITY.

  * THESE STATIONS DO NOT REPORT WEATHER SUCH AS RAIN...SNOW OR FOG.

NEZ001>004-019>022-054>056-292000-
NEBRASKA PANHANDLE

CITY           SKY/WX    TMP DP  RH WIND       PRES   REMARKS
SCOTTSBLUFF    SUNNY     79  47  32 E9        30.27F
ALLIANCE       SUNNY     80  45  28 S15       30.28F
CHADRON        SUNNY     80  43  26 E3        30.25F
KIMBALL        SUNNY     78  46  31 S18G24    30.30F
SIDNEY         SUNNY     81  47  30 S17G25    30.31S
$$

NEZ057>060-069>072-079>082-292000-
SOUTHWEST NEBRASKA

CITY           SKY/WX    TMP DP  RH WIND       PRES   REMARKS
NORTH PLATTE   MOSUNNY   80  52  37 SE8       30.27F
IMPERIAL       SUNNY     81  47  30 SE16      30.29F
MCCOOK         CLOUDY    77  52  41 VRB3      30.28S
$$

NEZ005>010-023>029-035>040-094-292000-
NORTH CENTRAL NEBRASKA

CITY           SKY/WX    TMP DP  RH WIND       PRES   REMARKS
VALENTINE      SUNNY     85  37  18 W10G23    30.22F
AINSWORTH      SUNNY     83  40  21 W12       30.24S
BROKEN BOW     MOSUNNY   82  50  32 W8        30.25F
O`NEILL        SUNNY     83  46  27 W12       30.21F
ORD            SUNNY     83  45  26 W8        30.22S
$$

NEZ041-046>049-061>064-073>077-083>087-292000-
SOUTH CENTRAL NEBRASKA

CITY           SKY/WX    TMP DP  RH WIND       PRES   REMARKS
GRAND ISLAND   SUNNY     81  47  30 VRB3      30.23S
AURORA         MOSUNNY   80  54  40 NE6       30.22S
HASTINGS       MOSUNNY   81  56  42 NE8       30.23R
KEARNEY *      PTSUNNY   79  48  34 SE6       30.25R
$$

NEZ011>018-030>034-042>045-292000-
NORTHEAST NEBRASKA

CITY           SKY/WX    TMP DP  RH WIND       PRES   REMARKS
NORFOLK        SUNNY     83  49  30 W8        30.18F
BLAIR          MOSUNNY   79  53  40 NW6       30.18S
COLUMBUS *     SUNNY     82  52  34 W6        30.19F
FREMONT        SUNNY     83  52  34 W10       30.18F
TEKAMAH        SUNNY     83  59  44 NW10      30.16S
$$

NEZ050>053-065>068-078-088>093-292000-
SOUTHEAST NEBRASKA

CITY           SKY/WX    TMP DP  RH WIND       PRES   REMARKS
LINCOLN        MOSUNNY   86  50  28 N12       30.18F
OMAHA EPPLEY   MOSUNNY   85  52  32 W10       30.16S
BEATRICE       MOSUNNY   82  58  42 NE8       30.17S
FALLS CITY     PTSUNNY   82  65  56 NE7       30.15F
NEBRASKA CITY  SUNNY     82  50  33 N6        30.17F
$$

NEZ044-045-051>053-067-292000-
OMAHA AREA

CITY           SKY/WX    TMP DP  RH WIND       PRES   REMARKS
OMAHA EPPLEY   MOSUNNY   85  52  32 W10       30.16S
BLAIR          MOSUNNY   79  53  40 NW6       30.18S
FREMONT        SUNNY     83  52  34 W10       30.18F
OFFUTT AFB     MOSUNNY   85  46  25 NW10      30.16S
WAHOO          FAIR      83  52  34 NW5       30.18F
$$


USA.gov is the U.S. government's official web portal to all federal, state and local government web resources and services.